Long Beach, CA

1:30 AM PST on February 11, 2016 (GMT -0800)
Long Beach

Weather History for KLGB - February, 2013

Change the Weather History Date:

Tuesday, February 5, 2013

  Actual Average Record
Temperature  
Mean Temperature 56 °F 57 °F  
Max Temperature 58 °F 67 °F 85 °F (1963)
Min Temperature 53 °F 47 °F 36 °F (1985)
Degree Days  
Heating Degree Days 9 8  
Month to date heating degree days 24 40  
Since 1 July heating degree days 645 719  
Cooling Degree Days 0 0  
Month to date cooling degree days 1 0  
Year to date cooling degree days 1 3  
Growing Degree Days 5 (Base 50)    
Moisture  
Dew Point 50 °F    
Average Humidity 83    
Maximum Humidity 89    
Minimum Humidity 77    
Precipitation  
Precipitation 0.00 in 0.10 in 1.40 in (1978)
Month to date precipitation T 0.48  
Year to date precipitation 1.04 3.08  
Since 1 July precipitation 4.84  
Sea Level Pressure  
Sea Level Pressure 30.05 in    
Wind  
Wind Speed 3 mph (South)    
Max Wind Speed 8 mph    
Max Gust Speed 10 mph    
Visibility 6 miles    
Events      
T = Trace of Precipitation, MM = Missing Value Source: NWS Daily Summary

Daily Weather History Graph

Daily Weather History Graph

Search for Another Location

Airport or City:

Trip Planner

Search our weather history database for the weather conditions in past years. The results will help you decide how hot, cold, wet, or windy it might be!

Date:

Astronomy

Feb. 05, 2013 Rise Set
Actual Time 6:45 AM PST 5:27 PM PST
Civil Twilight 6:20 AM PST 5:53 PM PST
Nautical Twilight 5:50 AM PST 6:23 PM PST
Astronomical Twilight 5:21 AM PST 6:52 PM PST
Moon 2:27 AM PST (2/5) 12:55 PM PST (2/5)
Length of Visible Light 11h 33m
Length of Day
10h 41m
Waning Crescent, 25% of the Moon is Illuminated
Feb 5
Waning Crescent
Feb 9
New
Feb 17
First Quarter
Feb 25
Full
Mar 4
Last Quarter

Hourly Weather History & Observations

Time (PST) Temp. Dew Point Humidity Pressure Visibility Wind Dir Wind Speed Gust Speed Precip Events Conditions
12:53 AM 55.0 °F 51.1 °F 86% 30.06 in 5.0 mi Calm Calm - N/A   Overcast
1:53 AM 55.0 °F 51.1 °F 86% 30.06 in 5.0 mi Calm Calm - N/A   Overcast
2:53 AM 54.0 °F 50.0 °F 86% 30.04 in 5.0 mi Calm Calm - N/A   Overcast
3:53 AM 54.0 °F 50.0 °F 86% 30.03 in 5.0 mi ENE 4.6 mph - N/A   Overcast
4:53 AM 54.0 °F 50.0 °F 86% 30.03 in 4.0 mi Calm Calm - N/A   Overcast
5:53 AM 54.0 °F 50.0 °F 86% 30.03 in 4.0 mi Calm Calm - N/A   Overcast
6:53 AM 54.0 °F 50.0 °F 86% 30.06 in 5.0 mi Calm Calm - N/A   Overcast
7:53 AM 55.0 °F 50.0 °F 83% 30.08 in 4.0 mi Calm Calm - N/A   Haze
8:53 AM 55.9 °F 50.0 °F 80% 30.09 in 4.0 mi ESE 3.5 mph - N/A   Haze
9:39 AM 55.4 °F 50.0 °F 82% 30.10 in 4.0 mi Calm Calm - N/A   Haze
9:53 AM 55.9 °F 50.0 °F 80% 30.11 in 4.0 mi Calm Calm - N/A   Haze
10:53 AM 55.9 °F 50.0 °F 80% 30.11 in 5.0 mi South 5.8 mph - N/A   Haze
11:53 AM 55.9 °F 50.0 °F 80% 30.09 in 5.0 mi South 4.6 mph - N/A   Haze
12:50 PM 57.2 °F 50.0 °F 77% 30.05 in 5.0 mi Calm Calm - N/A   Haze
12:53 PM 57.0 °F 50.0 °F 77% 30.05 in 5.0 mi Calm Calm - N/A   Haze
1:53 PM 57.9 °F 51.1 °F 78% 30.01 in 5.0 mi Calm Calm - N/A   Haze
2:53 PM 57.0 °F 51.1 °F 81% 30.00 in 6.0 mi WSW 4.6 mph - N/A   Haze
3:53 PM 57.0 °F 50.0 °F 77% 30.01 in 6.0 mi SW 6.9 mph - N/A   Haze
4:53 PM 55.9 °F 50.0 °F 80% 30.01 in 7.0 mi SSW 4.6 mph - N/A   Overcast
5:53 PM 55.9 °F 48.9 °F 77% 30.02 in 9.0 mi WSW 5.8 mph - N/A   Overcast
6:53 PM 55.9 °F 48.0 °F 75% 30.01 in 9.0 mi South 4.6 mph - N/A   Overcast
7:53 PM 55.9 °F 48.0 °F 75% 30.03 in 9.0 mi SW 4.6 mph - N/A   Overcast
8:53 PM 55.9 °F 48.0 °F 75% 30.04 in 7.0 mi SE 3.5 mph - N/A   Overcast
9:53 PM 55.9 °F 48.0 °F 75% 30.04 in 8.0 mi South 3.5 mph - N/A   Overcast
10:53 PM 55.4 °F 48.2 °F 77% 30.04 in 8.0 mi ESE 3.5 mph - N/A   Overcast
11:53 PM 55.9 °F 48.0 °F 75% 30.03 in 9.0 mi Calm Calm - N/A   Overcast